Content
SEND FEEDBACK

Canada Flag

QUEBEC CITY, QUEBEC


Home > North America > Canada > Quebec
Elevation: 239 feet     Latitude: 46 48N     Longitude: 071 23W

WEATHER
 
SELECT A DAY
Number of Records: 215,370;   Date Range: 6/30/96 - 3/22/16
 
SHARE

PRINT THIS DATA

[ ← Previous Day ]
WEATHER ALMANAC - AUGUST 13, 2013
[ Next Day → ]
[ °C ]   °F
Weather ElementAverageHighLow
Temperature59 °F60.8 °F (6:00 am)56 °F (11:00 pm)
Dewpoint49.2 °F58 °F (2:00 pm) (7:00 pm)
Humidity88 %94 % (1:00 am)81 % (8:00 am)
Barometer26.29 in29.89 in (1:00 am) (7:00 pm)
Wind Speed9.6 mph15 mph (8:00 am)
Wind Gust19.6 mph (1:42 pm)
Weather ElementAverage
Visibility12.4 mi
Wind DirectionENE (70.6 °)

Weather ElementTotal
Precipitation---
Heating Degree Days6.6 (Base 65)
Growing Degree Days8.4 (Base 50)
Averaged from 34 records on August 13, 2013
WEATHER CONDITIONS BREAKOUT
WIND DIRECTION BREAKOUT
WEATHER BY HOUR - AUGUST 13, 2013
[ °C ]   °F
Local TimeTemperatureDewpointHumidityBarometerVisibilityWind DirectionWind SpeedGust SpeedPrecipitationEventsConditions
1:00 AM59.0 °F57.2 °F94 %29.89 in15.0 miNE (40°)3.5 mphScattered Clouds
2:00 AM57.2 °F55.4 °F94 %29.87 in15.0 miNNE (20°)4.6 mphMostly Cloudy
3:00 AM59.0 °F57.2 °F94 %29.86 in15.0 miNorth (360°)4.6 mphMostly Cloudy
4:00 AM59.0 °F57.2 °F94 %29.84 in15.0 miNNE (30°)4.6 mphMostly Cloudy
5:00 AM59.0 °F57.0 °F89 %29.82 inENE (60°)3.5 mph
5:00 AM59.0 °F55.4 °F88 %29.84 in15.0 miNE (40°)8.1 mphMostly Cloudy
6:00 AM60.8 °F55.4 °F82 %29.83 in15.0 miENE (60°)10.4 mphMostly Cloudy
7:00 AM60.8 °F57.2 °F88 %29.83 in15.0 miNE (50°)6.9 mphRainLight Rain
8:00 AM60.8 °F55.4 °F82 %29.84 in8.0 miENE (60°)15.0 mphRainLight Rain
8:00 AM60.0 °F56.0 °F81 %29.82 inEast (90°)4.6 mph
9:00 AM60.8 °F55.4 °F82 %29.83 in8.0 miEast (90°)6.9 mphRainLight Rain
10:00 AM59.0 °F55.4 °F88 %29.80 in10.0 miENE (60°)12.7 mphRainLight Rain
10:49 AM59.0 °F0.0 °F15.0 miENE (70°)15.0 mphRainLight Rain
11:00 AM59.0 °F57.0 °F89 %29.78 inEast (80°)8.1 mph
11:00 AM59.0 °F57.2 °F94 %29.81 in15.0 miENE (60°)10.4 mphRainLight Rain
11:38 AM59.0 °F0.0 °F2.0 miENE (60°)9.2 mphRainLight Rain Showers
12:00 PM59.0 °F57.2 °F94 %29.81 in2.0 miENE (60°)8.1 mphRainLight Rain Showers
1:00 PM59.0 °F57.2 °F94 %29.80 in6.0 miENE (60°)11.5 mphRainLight Rain Showers
1:42 PM59.0 °F0.0 °F8.0 miENE (60°)13.8 mph19.6 mphOvercast
2:00 PM60.0 °F58.0 °F90 %29.77 inENE (70°)8.1 mph
2:00 PM60.8 °F57.2 °F88 %29.79 in8.0 miENE (60°)10.4 mph19.6 mphOvercast
3:00 PM60.8 °F57.2 °F88 %29.78 in12.0 miENE (60°)11.5 mphOvercast
4:00 PM60.8 °F57.2 °F88 %29.77 in15.0 miENE (70°)11.5 mph19.6 mphMostly Cloudy
5:00 PM60.0 °F56.0 °F83 %29.74 inEast (80°)9.2 mph
5:00 PM60.8 °F55.4 °F82 %29.77 in15.0 miEast (80°)10.4 mphMostly Cloudy
6:00 PM59.0 °F55.4 °F88 %29.75 in15.0 miENE (70°)13.8 mph19.6 mphOvercast
7:00 PM59.0 °F55.4 °F88 %29.75 in15.0 miENE (60°)13.8 mph19.6 mphMostly Cloudy
8:00 PM57.0 °F54.0 °F85 %29.72 inENE (70°)10.4 mph
8:00 PM57.2 °F53.6 °F88 %29.75 in15.0 miENE (60°)12.7 mphMostly Cloudy
9:00 PM57.2 °F53.6 °F88 %29.74 in15.0 miENE (70°)13.8 mphOvercast
9:51 PM57.2 °F0.0 °F15.0 miENE (60°)9.2 mphRainLight Rain Showers
10:00 PM57.2 °F53.6 °F88 %29.72 in15.0 miNE (50°)13.8 mphOvercast
11:00 PM56.0 °F53.0 °F87 %29.69 inENE (60°)4.6 mph
11:00 PM57.2 °F51.8 °F82 %29.72 in15.0 miENE (70°)12.7 mphOvercast
Hourly data recorded from CYQB, located miles away from Quebec City, Quebec




STORIES FROM OUR PARTNERS